User: anonymous   Login
Location: Unspecified
(0.0000°N, 0.0000°E)
Time: 22:21:31
(UTC+00:00)
Language:

CASSIOPE - Orbit

View from above orbital plane
View from above orbital plane
View from above satellite
View from above satellite

Ground track
Ground track

The orbit data is extracted from the following two-line orbital elements,

1 39265U 13055A   17327.52218838  .00005357  00000-0  15454-3 0  9998
2 39265  80.9700 210.0376 0682524 151.3305 212.7262 14.24279715214174
Epoch (UTC): 23 November 2017 12:31:57
Eccentricity: 0.0682524
inclination: 80.9700°
perigee height: 320 km
apogee height: 1301 km
right ascension of ascending node: 210.0376°
argument of perigee: 151.3305°
revolutions per day: 14.24279715
mean anomaly at epoch: 212.7262°
orbit number at epoch: 21417

The dashed part of the orbit path shows where the satellite is in the earth's shadow,  

DLR